KK4WAQ Weather Reports


time (UTC)temp
F
wind
direction
speed
knots
gust
knots
rain 1hr
in
rain 24hr
in
rain mn
in
humidity
%
barometer
mb
20260906030027 82 113 0.0 0.0 0.00 0.00 0.00 74 1011.9
20260906024525 83 113 0.0 0.0 0.00 0.00 0.00 74 1011.5
20260906023027 84 112 0.0 0.0 0.00 0.00 0.00 73 1011.2
20260906021525 84 112 0.0 0.0 0.00 0.00 0.00 73 1011.1
20260906020027 85 112 0.0 0.0 0.00 0.00 0.00 72 1010.9
20260906014529 86 112 0.0 0.0 0.00 0.00 0.00 71 1010.6
20260906013024 86 96 0.0 0.9 0.00 0.00 0.00 70 1010.7
20260906011525 87 32 0.0 0.0 0.00 0.00 0.00 72 1010.9
20260906010023 87 351 0.0 0.0 0.00 0.00 0.00 70 1010.8
20260906004524 88 351 0.0 0.0 0.00 0.00 0.00 69 1010.7
20260906003022 89 351 0.0 0.0 0.00 0.00 0.00 68 1010.6
20260906001523 91 351 0.0 0.0 0.00 0.00 0.00 66 1010.5
20260906000028 92 351 0.0 0.0 0.00 0.00 0.00 63 1010.5
20260905234519 93 351 0.0 0.0 0.00 0.00 0.00 61 1010.6
20260905233025 93 351 0.0 0.0 0.00 0.00 0.00 59 1010.6
20260905231519 94 351 0.0 0.0 0.00 0.00 0.00 58 1010.5
20260905230018 95 351 0.0 0.0 0.00 0.00 0.00 56 1010.5
20260905224517 95 309 0.0 0.0 0.00 0.00 0.00 54 1010.5
20260905223016 96 338 0.0 0.0 0.00 0.00 0.00 53 1010.6
20260905221515 96 2 0.0 0.9 0.00 0.00 0.00 50 1010.6
20260905220015 96 3 0.0 0.0 0.00 0.00 0.00 50 1010.6
20260905214512 97 343 0.0 0.0 0.00 0.00 0.00 51 1010.6
20260905213011 98 348 0.0 0.0 0.00 0.00 0.00 50 1010.6
20260905211509 98 42 0.0 0.0 0.00 0.00 0.00 49 1010.8
20260905210008 99 80 0.0 0.0 0.00 0.00 0.00 48 1010.8
20260905204510 99 9 0.0 0.0 0.00 0.00 0.00 48 1011.1
20260905203004 99 344 0.0 0.9 0.00 0.00 0.00 50 1011.3
20260905201502 98 323 0.0 0.0 0.00 0.00 0.00 52 1011.4
20260905194559 98 343 0.0 0.9 0.00 0.00 0.00 53 1011.8
20260905193053 98 11 0.0 0.0 0.00 0.00 0.00 54 1012.1
20260905191549 98 343 0.0 0.9 0.00 0.00 0.00 55 1012.3
20260905190046 97 26 0.0 0.9 0.00 0.00 0.00 54 1012.6
20260905184601 97 335 0.0 0.0 0.00 0.00 0.00 54 1012.8
20260905183043 97 18 0.0 0.0 0.00 0.00 0.00 54 1013.0
20260905181540 96 16 0.0 0.9 0.00 0.00 0.00 57 1013.2
20260905180038 96 8 0.0 0.0 0.00 0.00 0.00 60 1013.2
20260905174543 96 339 0.0 1.7 0.00 0.00 0.00 59 1013.4
20260905173033 95 10 0.0 1.7 0.00 0.00 0.00 61 1013.5
20260905171529 94 21 0.0 0.0 0.00 0.00 0.00 61 1013.6
20260905170026 93 360 0.0 0.0 0.00 0.00 0.00 64 1013.8
20260905164523 93 321 0.0 0.0 0.00 0.00 0.00 64 1014.0
20260905163019 92 1 0.0 0.0 0.00 0.00 0.00 63 1014.2
20260905161515 91 275 0.0 0.0 0.00 0.00 0.00 68 1014.2
20260905160022 89 352 0.0 0.0 0.00 0.00 0.00 73 1014.4
20260905154506 87 336 0.0 0.0 0.00 0.00 0.00 75 1014.5
20260905153003 86 21 0.0 0.0 0.00 0.00 0.00 76 1014.5
20260905151600 85 9 0.0 0.0 0.00 0.00 0.00 77 1014.5
20260905150056 83 323 0.0 0.9 0.00 0.00 0.00 80 1014.5
20260905144552 82 171 0.0 0.0 0.00 0.00 0.00 82 1014.7
20260905143048 80 171 0.0 0.0 0.00 0.00 0.00 85 1014.8
20260905141607 79 171 0.0 0.0 0.00 0.00 0.00 88 1014.7
20260905140053 78 171 0.0 0.0 0.00 0.00 0.00 89 1014.8
20260905134544 77 171 0.0 0.9 0.00 0.00 0.00 90 1014.9
20260905133050 77 171 0.0 0.0 0.00 0.00 0.00 92 1014.8
20260905131551 76 171 0.0 0.0 0.00 0.00 0.00 93 1014.9
20260905130035 75 171 0.0 0.0 0.00 0.00 0.00 94 1015.0
20260905124535 75 171 0.0 0.0 0.00 0.00 0.00 94 1014.9
20260905123033 74 171 0.0 0.0 0.00 0.00 0.00 95 1014.9
20260905121532 74 171 0.0 0.0 0.00 0.00 0.00 95 1014.6
20260905120029 73 171 0.0 0.0 0.00 0.00 0.00 95 1014.3
20260905114541 73 252 0.0 0.0 0.00 0.00 0.00 95 1014.3
20260905113025 73 252 0.0 0.0 0.00 0.00 0.00 95 1014.1
20260905111523 73 252 0.0 0.0 0.00 0.00 0.00 94 1014.0
20260905110023 73 252 0.0 0.0 0.00 0.00 0.00 94 1013.7
20260905104521 73 252 0.0 0.0 0.00 0.00 0.00 94 1013.6
20260905103030 73 252 0.0 0.0 0.00 0.00 0.00 94 1013.5
20260905101519 73 176 0.0 0.0 0.00 0.00 0.00 94 1013.3
20260905100018 73 252 0.0 0.0 0.00 0.00 0.00 93 1013.2
20260905094517 74 252 0.0 0.0 0.00 0.00 0.00 93 1013.1
20260905093016 74 176 0.0 0.0 0.00 0.00 0.00 94 1013.1
20260905091515 74 252 0.0 0.0 0.00 0.00 0.00 94 1013.1
20260905090014 74 177 0.0 0.0 0.00 0.00 0.00 94 1013.2
20260905084517 74 177 0.0 0.0 0.00 0.00 0.00 93 1013.2
20260905083012 74 177 0.0 0.0 0.00 0.00 0.00 93 1013.1
20260905081512 75 177 0.0 0.0 0.00 0.00 0.00 93 1013.2
20260905080010 75 177 0.0 0.0 0.00 0.00 0.00 93 1013.3
20260905074515 75 177 0.0 0.0 0.00 0.00 0.00 92 1013.3
20260905073008 75 177 0.0 0.0 0.00 0.00 0.00 92 1013.3
20260905071509 75 177 0.0 0.0 0.00 0.00 0.00 92 1013.4
20260905070005 75 177 0.0 0.0 0.00 0.00 0.00 90 1013.3
20260905064504 76 177 0.0 0.0 0.00 0.00 0.00 90 1013.4
20260905063003 76 177 0.0 0.0 0.00 0.00 0.00 89 1013.4
20260905061502 76 177 0.0 0.0 0.00 0.00 0.00 89 1013.5
20260905060103 76 177 0.0 0.0 0.00 0.00 0.00 89 1013.4
20260905054604 76 177 0.0 0.0 0.00 0.00 0.00 88 1013.5
20260905053057 77 177 0.0 0.0 0.00 0.00 0.00 88 1013.5
20260905051608 77 177 0.0 0.0 0.00 0.00 0.00 88 1013.7
20260905044558 77 177 0.0 0.0 0.00 0.00 0.00 86 1013.7
20260905043051 78 177 0.0 0.0 0.00 0.00 0.00 86 1013.8
20260905041550 78 177 0.0 0.0 0.00 0.00 0.00 85 1013.6
20260905040055 78 177 0.0 0.0 0.00 0.00 0.00 85 1013.8
20260905034605 79 177 0.0 0.0 0.00 0.00 0.00 84 1014.0
20260905033103 79 177 0.0 0.0 0.00 0.00 0.00 83 1014.0
20260905031553 80 177 0.0 0.0 0.00 0.00 0.00 82 1014.1